Time,TemperatureF,DewpointF,PressureIn,WindDirection,WindDirectionDegrees,WindSpeedMPH,WindSpeedGustMPH,Humidity,HourlyPrecipIn,Conditions,Clouds,dailyrainin,SoftwareType,DateUTC
2013-03-09 00:01:00,60.0,54.5,29.31,SE,135,5.8,5.8,82,0.00,CLR,,0.00,WeatherDisplay:10.37,2013-03-09 06:01:00,
2013-03-09 00:06:00,60.0,54.5,29.31,SSE,157,10.4,10.4,82,0.00,CLR,,0.00,WeatherDisplay:10.37,2013-03-09 06:06:00,
2013-03-09 00:11:00,60.0,54.5,29.30,SSW,202,9.2,9.2,82,0.00,CLR,,0.00,WeatherDisplay:10.37,2013-03-09 06:11:00,
2013-03-09 00:16:00,60.0,54.5,29.30,SSE,157,4.0,4.0,82,0.00,CLR,,0.00,WeatherDisplay:10.37,2013-03-09 06:16:00,
2013-03-09 00:21:00,61.0,55.5,29.29,South,180,10.4,10.4,82,0.00,CLR,,0.00,WeatherDisplay:10.37,2013-03-09 06:21:00,
2013-03-09 00:26:00,61.0,55.5,29.29,South,180,9.0,9.0,82,0.00,CLR,,0.00,WeatherDisplay:10.37,2013-03-09 06:26:00,
2013-03-09 00:31:00,61.0,55.1,29.29,South,180,10.4,10.4,81,0.00,CLR,,0.00,WeatherDisplay:10.37,2013-03-09 06:31:00,
2013-03-09 00:36:00,60.0,54.5,29.29,South,180,8.1,8.1,82,0.00,CLR,,0.00,WeatherDisplay:10.37,2013-03-09 06:36:00,
2013-03-09 00:41:00,60.0,54.5,29.29,South,180,6.9,6.9,82,0.00,CLR,,0.00,WeatherDisplay:10.37,2013-03-09 06:41:00,
2013-03-09 00:46:00,60.0,54.5,29.29,SSE,157,8.1,8.1,82,0.00,CLR,,0.00,WeatherDisplay:10.37,2013-03-09 06:46:00,
2013-03-09 00:51:00,60.0,54.5,29.29,SE,135,11.5,11.5,82,0.00,CLR,,0.00,WeatherDisplay:10.37,2013-03-09 06:51:00,
2013-03-09 00:56:00,60.0,54.5,29.28,SSE,157,12.0,12.0,82,0.00,CLR,,0.00,WeatherDisplay:10.37,2013-03-09 06:56:00,
2013-03-09 01:01:00,60.0,54.5,29.28,South,180,10.4,10.4,82,0.00,CLR,,0.00,WeatherDisplay:10.37,2013-03-09 07:01:00,
2013-03-09 01:06:00,60.0,54.5,29.28,SSE,157,9.2,9.2,82,0.00,CLR,,0.00,WeatherDisplay:10.37,2013-03-09 07:06:00,
2013-03-09 01:11:00,60.0,54.5,29.28,SE,135,8.1,8.1,82,0.00,CLR,,0.00,WeatherDisplay:10.37,2013-03-09 07:11:00,
2013-03-09 01:16:00,60.0,54.5,29.28,SSE,157,6.9,6.9,82,0.00,CLR,,0.00,WeatherDisplay:10.37,2013-03-09 07:16:00,
2013-03-09 01:21:00,60.0,54.8,29.28,SSE,157,7.0,7.0,83,0.00,CLR,,0.00,WeatherDisplay:10.37,2013-03-09 07:21:00,
2013-03-09 01:26:00,60.0,54.5,29.27,SSE,157,6.9,6.9,82,0.00,CLR,,0.00,WeatherDisplay:10.37,2013-03-09 07:26:00,
2013-03-09 01:31:00,60.0,54.5,29.27,SSE,157,15.0,15.0,82,0.00,CLR,,0.00,WeatherDisplay:10.37,2013-03-09 07:31:00,
2013-03-09 01:36:00,60.0,54.8,29.27,South,180,10.4,10.4,83,0.00,CLR,,0.00,WeatherDisplay:10.37,2013-03-09 07:36:00,
2013-03-09 01:41:00,60.0,54.8,29.27,SE,135,6.9,6.9,83,0.00,CLR,,0.00,WeatherDisplay:10.37,2013-03-09 07:41:00,
2013-03-09 01:46:00,60.0,55.2,29.27,SE,135,11.5,11.5,84,0.00,CLR,,0.00,WeatherDisplay:10.37,2013-03-09 07:46:00,
2013-03-09 01:51:00,59.0,54.2,29.27,SSE,157,6.0,6.0,84,0.00,CLR,,0.00,WeatherDisplay:10.37,2013-03-09 07:51:00,
2013-03-09 01:56:00,59.0,54.5,29.27,SE,135,9.2,9.2,85,0.00,CLR,,0.00,WeatherDisplay:10.37,2013-03-09 07:56:00,
2013-03-09 02:01:00,59.0,54.5,29.27,SE,135,12.0,12.0,85,0.00,CLR,,0.00,WeatherDisplay:10.37,2013-03-09 08:01:00,
2013-03-09 02:06:00,60.0,55.2,29.26,SSE,157,11.5,11.5,84,0.00,CLR,,0.00,WeatherDisplay:10.37,2013-03-09 08:06:00,
2013-03-09 02:11:00,60.0,55.2,29.26,South,180,6.9,6.9,84,0.00,CLR,,0.00,WeatherDisplay:10.37,2013-03-09 08:11:00,
2013-03-09 02:16:00,60.0,55.2,29.26,South,180,9.2,9.2,84,0.00,CLR,,0.00,WeatherDisplay:10.37,2013-03-09 08:16:00,
2013-03-09 02:21:00,59.0,54.5,29.25,SSE,157,11.5,11.5,85,0.00,CLR,,0.00,WeatherDisplay:10.37,2013-03-09 08:21:00,
2013-03-09 02:26:00,59.0,54.5,29.25,SSE,157,9.2,9.2,85,0.00,CLR,,0.00,WeatherDisplay:10.37,2013-03-09 08:26:00,
2013-03-09 02:31:00,59.0,54.8,29.24,South,180,10.4,10.4,86,0.00,CLR,,0.00,WeatherDisplay:10.37,2013-03-09 08:31:00,
2013-03-09 02:36:00,59.0,54.8,29.24,SSW,202,7.0,7.0,86,0.00,CLR,,0.00,WeatherDisplay:10.37,2013-03-09 08:36:00,
2013-03-09 02:41:00,59.0,54.8,29.24,SSE,157,11.0,11.0,86,0.00,CLR,,0.00,WeatherDisplay:10.37,2013-03-09 08:41:00,
2013-03-09 02:46:00,59.0,55.1,29.24,SW,225,12.7,12.7,87,0.00,CLR,,0.00,WeatherDisplay:10.37,2013-03-09 08:46:00,
2013-03-09 02:51:00,59.0,55.1,29.23,SSE,157,10.4,10.4,87,0.00,CLR,,0.00,WeatherDisplay:10.37,2013-03-09 08:51:00,
2013-03-09 02:56:00,59.0,54.8,29.23,South,180,15.0,15.0,86,0.00,CLR,,0.00,WeatherDisplay:10.37,2013-03-09 08:56:00,
2013-03-09 03:02:00,59.0,55.1,29.23,SSE,157,10.4,10.4,87,0.00,CLR,,0.00,WeatherDisplay:10.37,2013-03-09 09:02:00,
2013-03-09 03:07:00,59.0,55.1,29.23,SSE,157,10.0,10.0,87,0.00,CLR,,0.00,WeatherDisplay:10.37,2013-03-09 09:07:00,
2013-03-09 03:12:00,59.0,55.1,29.22,SSE,157,11.5,11.5,87,0.00,CLR,,0.00,WeatherDisplay:10.37,2013-03-09 09:12:00,
2013-03-09 03:17:00,59.0,55.1,29.22,South,180,17.3,17.3,87,0.00,CLR,,0.00,WeatherDisplay:10.37,2013-03-09 09:17:00,
2013-03-09 03:22:00,59.0,55.4,29.21,SSE,157,9.0,9.0,88,0.00,CLR,,0.00,WeatherDisplay:10.37,2013-03-09 09:22:00,
2013-03-09 03:27:00,59.0,55.4,29.22,South,180,10.4,10.4,88,0.00,CLR,,0.00,WeatherDisplay:10.37,2013-03-09 09:27:00,
2013-03-09 03:32:00,59.0,55.1,29.22,SSE,157,10.4,10.4,87,0.00,CLR,,0.00,WeatherDisplay:10.37,2013-03-09 09:32:00,
2013-03-09 03:37:00,59.0,55.8,29.22,SSW,202,12.7,12.7,89,0.00,CLR,,0.00,WeatherDisplay:10.37,2013-03-09 09:37:00,
2013-03-09 03:42:00,59.0,55.8,29.21,SE,135,10.4,10.4,89,0.00,CLR,,0.00,WeatherDisplay:10.37,2013-03-09 09:42:00,
2013-03-09 03:47:00,59.0,55.8,29.22,South,180,16.0,16.0,89,0.00,CLR,,0.00,WeatherDisplay:10.37,2013-03-09 09:47:00,
2013-03-09 03:52:00,59.0,55.1,29.21,South,180,12.0,12.0,87,0.00,CLR,,0.00,WeatherDisplay:10.37,2013-03-09 09:52:00,
2013-03-09 03:57:00,59.0,55.8,29.21,SSE,157,14.0,14.0,89,0.00,CLR,,0.00,WeatherDisplay:10.37,2013-03-09 09:57:00,
2013-03-09 04:02:00,59.0,55.4,29.21,SSE,157,8.1,8.1,88,0.00,CLR,,0.00,WeatherDisplay:10.37,2013-03-09 10:02:00,
2013-03-09 04:07:00,59.0,55.8,29.21,South,180,10.4,10.4,89,0.00,CLR,,0.00,WeatherDisplay:10.37,2013-03-09 10:07:00,
2013-03-09 04:12:00,59.0,55.8,29.21,South,180,10.4,10.4,89,0.00,CLR,,0.00,WeatherDisplay:10.37,2013-03-09 10:12:00,
2013-03-09 04:17:00,59.0,55.8,29.21,South,180,11.5,11.5,89,0.00,CLR,,0.00,WeatherDisplay:10.37,2013-03-09 10:17:00,
2013-03-09 04:22:00,59.0,55.8,29.21,South,180,11.5,11.5,89,0.00,CLR,,0.00,WeatherDisplay:10.37,2013-03-09 10:22:00,
2013-03-09 04:27:00,59.0,55.8,29.21,SSE,157,8.0,8.0,89,0.00,CLR,,0.00,WeatherDisplay:10.37,2013-03-09 10:27:00,
2013-03-09 04:32:00,59.0,55.8,29.21,SSE,157,10.0,10.0,89,0.00,CLR,,0.00,WeatherDisplay:10.37,2013-03-09 10:32:00,
2013-03-09 04:37:00,59.0,55.8,29.21,SSE,157,12.0,12.0,89,0.00,CLR,,0.00,WeatherDisplay:10.37,2013-03-09 10:37:00,
2013-03-09 04:42:00,59.0,55.8,29.21,SE,135,11.5,11.5,89,0.00,CLR,,0.00,WeatherDisplay:10.37,2013-03-09 10:42:00,
2013-03-09 04:47:00,59.0,55.8,29.21,SE,135,6.9,7.0,89,0.00,CLR,,0.00,WeatherDisplay:10.37,2013-03-09 10:47:00,
2013-03-09 04:52:00,59.0,55.8,29.22,South,180,15.0,15.0,89,0.00,CLR,,0.00,WeatherDisplay:10.37,2013-03-09 10:52:00,
2013-03-09 04:57:00,59.0,55.8,29.21,South,180,9.2,9.2,89,0.00,CLR,,0.00,WeatherDisplay:10.37,2013-03-09 10:57:00,
2013-03-09 05:02:00,59.0,55.8,29.21,SSW,202,6.9,6.9,89,0.00,CLR,,0.00,WeatherDisplay:10.37,2013-03-09 11:02:00,
2013-03-09 05:07:00,59.0,56.1,29.21,South,180,10.4,10.4,90,0.00,CLR,,0.00,WeatherDisplay:10.37,2013-03-09 11:07:00,
2013-03-09 05:12:00,59.0,55.8,29.21,South,180,9.2,9.2,89,0.00,CLR,,0.00,WeatherDisplay:10.37,2013-03-09 11:12:00,
2013-03-09 05:17:00,59.0,56.1,29.21,SSE,157,15.0,15.0,90,0.00,CLR,,0.00,WeatherDisplay:10.37,2013-03-09 11:17:00,
2013-03-09 05:22:00,59.0,56.1,29.21,WSW,247,8.1,8.1,90,0.00,CLR,,0.00,WeatherDisplay:10.37,2013-03-09 11:22:00,
2013-03-09 05:27:00,59.0,56.1,29.21,South,180,12.7,12.7,90,0.00,CLR,,0.00,WeatherDisplay:10.37,2013-03-09 11:27:00,
2013-03-09 05:32:00,59.0,56.1,29.21,South,180,10.4,10.4,90,0.00,CLR,,0.00,WeatherDisplay:10.37,2013-03-09 11:32:00,
2013-03-09 05:37:00,59.0,56.1,29.21,SSE,157,10.0,10.0,90,0.00,CLR,,0.00,WeatherDisplay:10.37,2013-03-09 11:37:00,
2013-03-09 05:42:00,59.0,56.1,29.21,SSE,157,11.5,11.5,90,0.00,CLR,,0.00,WeatherDisplay:10.37,2013-03-09 11:42:00,
2013-03-09 05:47:00,59.0,56.1,29.21,SSE,157,9.2,9.2,90,0.00,CLR,,0.00,WeatherDisplay:10.37,2013-03-09 11:47:00,
2013-03-09 05:52:00,59.0,56.1,29.21,SSE,157,9.2,9.2,90,0.00,CLR,,0.00,WeatherDisplay:10.37,2013-03-09 11:52:00,
2013-03-09 05:57:00,59.0,56.1,29.21,SSW,202,12.0,12.0,90,0.00,CLR,,0.00,WeatherDisplay:10.37,2013-03-09 11:57:00,
2013-03-09 06:02:00,59.0,56.1,29.21,SSE,157,10.4,10.4,90,0.00,CLR,,0.00,WeatherDisplay:10.37,2013-03-09 12:02:00,
2013-03-09 06:07:00,59.0,56.1,29.20,South,180,12.7,12.7,90,0.00,CLR,,0.00,WeatherDisplay:10.37,2013-03-09 12:07:00,
2013-03-09 06:12:00,59.0,56.1,29.20,SSW,202,11.5,11.5,90,0.00,CLR,,0.00,WeatherDisplay:10.37,2013-03-09 12:12:00,
2013-03-09 06:17:00,60.0,57.1,29.20,South,180,10.4,10.4,90,0.00,CLR,,0.00,WeatherDisplay:10.37,2013-03-09 12:17:00,
2013-03-09 06:22:00,60.0,57.1,29.20,South,180,9.2,9.2,90,0.00,CLR,,0.00,WeatherDisplay:10.37,2013-03-09 12:22:00,
2013-03-09 06:27:00,60.0,57.1,29.20,South,180,11.0,11.0,90,0.00,CLR,,0.00,WeatherDisplay:10.37,2013-03-09 12:27:00,
2013-03-09 06:32:00,60.0,57.1,29.20,South,180,12.0,12.0,90,0.00,CLR,,0.00,WeatherDisplay:10.37,2013-03-09 12:32:00,
2013-03-09 06:37:00,60.0,57.1,29.20,South,180,9.2,9.2,90,0.00,CLR,,0.00,WeatherDisplay:10.37,2013-03-09 12:37:00,
2013-03-09 06:42:00,60.0,57.4,29.20,South,180,9.2,9.2,91,0.00,CLR,,0.00,WeatherDisplay:10.37,2013-03-09 12:42:00,
2013-03-09 06:47:00,60.0,57.1,29.19,SE,135,10.4,10.4,90,0.00,CLR,,0.00,WeatherDisplay:10.37,2013-03-09 12:47:00,
2013-03-09 06:52:00,60.0,57.4,29.19,South,180,12.7,12.7,91,0.00,CLR,,0.00,WeatherDisplay:10.37,2013-03-09 12:52:00,
2013-03-09 06:57:00,60.0,57.1,29.19,South,180,8.1,8.1,90,0.00,CLR,,0.00,WeatherDisplay:10.37,2013-03-09 12:57:00,
2013-03-09 07:02:00,60.0,57.4,29.19,SSE,157,13.8,13.8,91,0.00,CLR,,0.00,WeatherDisplay:10.37,2013-03-09 13:02:00,
2013-03-09 07:07:00,60.0,57.4,29.19,SSE,157,10.4,10.4,91,0.00,CLR,,0.00,WeatherDisplay:10.37,2013-03-09 13:07:00,
2013-03-09 07:12:00,60.0,57.4,29.19,South,180,12.7,12.7,91,0.00,CLR,,0.00,WeatherDisplay:10.37,2013-03-09 13:12:00,
2013-03-09 07:17:00,60.0,57.4,29.19,SSE,157,12.7,12.7,91,0.00,CLR,,0.00,WeatherDisplay:10.37,2013-03-09 13:17:00,
2013-03-09 07:22:00,60.0,57.4,29.19,SSE,157,11.5,11.7,91,0.00,CLR,,0.00,WeatherDisplay:10.37,2013-03-09 13:22:00,
2013-03-09 07:27:00,60.0,57.4,29.19,South,180,11.5,11.5,91,0.00,CLR,,0.00,WeatherDisplay:10.37,2013-03-09 13:27:00,
2013-03-09 07:33:00,60.0,57.4,29.19,SE,135,11.5,11.5,91,0.00,CLR,,0.00,WeatherDisplay:10.37,2013-03-09 13:33:00,
2013-03-09 07:38:00,60.0,57.4,29.19,South,180,9.2,9.2,91,0.00,CLR,,0.00,WeatherDisplay:10.37,2013-03-09 13:38:00,
2013-03-09 07:43:00,60.0,57.4,29.19,SE,135,12.7,12.7,91,0.00,CLR,,0.00,WeatherDisplay:10.37,2013-03-09 13:43:00,
2013-03-09 07:48:00,60.0,57.4,29.19,SSE,157,10.4,10.4,91,0.00,CLR,,0.00,WeatherDisplay:10.37,2013-03-09 13:48:00,
2013-03-09 07:53:00,60.0,57.4,29.19,SE,135,9.2,9.2,91,0.00,CLR,,0.00,WeatherDisplay:10.37,2013-03-09 13:53:00,
2013-03-09 07:58:00,60.0,57.4,29.19,SSE,157,9.0,9.0,91,0.00,CLR,,0.00,WeatherDisplay:10.37,2013-03-09 13:58:00,
2013-03-09 08:03:00,61.0,58.4,29.19,SSW,202,8.1,8.1,91,0.00,CLR,,0.00,WeatherDisplay:10.37,2013-03-09 14:03:00,
2013-03-09 08:08:00,61.0,58.4,29.19,South,180,10.4,10.4,91,0.00,CLR,,0.00,WeatherDisplay:10.37,2013-03-09 14:08:00,
2013-03-09 08:13:00,61.0,58.4,29.19,South,180,13.8,13.8,91,0.00,CLR,,0.00,WeatherDisplay:10.37,2013-03-09 14:13:00,
2013-03-09 08:18:00,61.0,58.4,29.19,South,180,10.4,10.4,91,0.00,CLR,,0.00,WeatherDisplay:10.37,2013-03-09 14:18:00,
2013-03-09 08:23:00,61.0,58.0,29.19,SSE,157,8.1,8.1,90,0.00,CLR,,0.00,WeatherDisplay:10.37,2013-03-09 14:23:00,
2013-03-09 08:28:00,61.0,58.0,29.19,South,180,15.0,15.0,90,0.00,CLR,,0.00,WeatherDisplay:10.37,2013-03-09 14:28:00,
2013-03-09 08:33:00,61.0,58.0,29.19,SSE,157,10.0,10.0,90,0.00,CLR,,0.00,WeatherDisplay:10.37,2013-03-09 14:33:00,
2013-03-09 08:38:00,61.0,58.0,29.19,South,180,12.0,12.0,90,0.00,CLR,,0.00,WeatherDisplay:10.37,2013-03-09 14:38:00,
2013-03-09 08:43:00,62.0,59.0,29.19,SSE,157,11.5,11.5,90,0.00,CLR,,0.00,WeatherDisplay:10.37,2013-03-09 14:43:00,
2013-03-09 08:48:00,62.0,58.7,29.18,South,180,16.1,16.1,89,0.00,CLR,,0.00,WeatherDisplay:10.37,2013-03-09 14:48:00,
2013-03-09 08:53:00,62.0,58.7,29.18,South,180,16.1,16.1,89,0.00,CLR,,0.00,WeatherDisplay:10.37,2013-03-09 14:53:00,
2013-03-09 08:58:00,62.0,58.7,29.18,SW,225,12.7,12.7,89,0.00,CLR,,0.00,WeatherDisplay:10.37,2013-03-09 14:58:00,
2013-03-09 09:03:00,62.0,58.7,29.18,SE,135,15.0,15.0,89,0.00,CLR,,0.00,WeatherDisplay:10.37,2013-03-09 15:03:00,
2013-03-09 09:08:00,62.0,58.7,29.18,SSW,202,9.2,9.2,89,0.00,CLR,,0.00,WeatherDisplay:10.37,2013-03-09 15:08:00,
2013-03-09 09:13:00,62.0,58.7,29.18,SSE,157,19.6,19.6,89,0.00,CLR,,0.00,WeatherDisplay:10.37,2013-03-09 15:13:00,
2013-03-09 09:18:00,62.0,58.7,29.17,South,180,13.8,13.8,89,0.00,CLR,,0.00,WeatherDisplay:10.37,2013-03-09 15:18:00,
2013-03-09 09:23:00,62.0,58.7,29.18,SE,135,9.2,9.2,89,0.00,CLR,,0.00,WeatherDisplay:10.37,2013-03-09 15:23:00,
2013-03-09 09:28:00,62.0,58.7,29.17,South,180,10.4,10.4,89,0.00,CLR,,0.00,WeatherDisplay:10.37,2013-03-09 15:28:00,
2013-03-09 09:33:00,62.0,58.7,29.17,South,180,15.0,15.0,89,0.00,CLR,,0.00,WeatherDisplay:10.37,2013-03-09 15:33:00,
2013-03-09 09:38:00,63.0,59.4,29.17,SSE,157,17.3,17.3,88,0.00,CLR,,0.00,WeatherDisplay:10.37,2013-03-09 15:38:00,
2013-03-09 09:43:00,63.0,59.7,29.17,South,180,18.0,18.0,89,0.00,CLR,,0.00,WeatherDisplay:10.37,2013-03-09 15:43:00,
2013-03-09 09:48:00,63.0,59.7,29.17,SSE,157,9.2,9.2,89,0.00,CLR,,0.00,WeatherDisplay:10.37,2013-03-09 15:48:00,
2013-03-09 09:53:00,63.0,59.7,29.17,SW,225,11.5,11.5,89,0.00,CLR,,0.00,WeatherDisplay:10.37,2013-03-09 15:53:00,
2013-03-09 09:58:00,63.0,59.7,29.17,SSE,157,9.2,9.2,89,0.00,CLR,,0.00,WeatherDisplay:10.37,2013-03-09 15:58:00,
2013-03-09 10:03:00,63.0,59.7,29.17,South,180,12.7,12.7,89,0.00,CLR,,0.00,WeatherDisplay:10.37,2013-03-09 16:03:00,
2013-03-09 10:07:00,63.0,59.7,29.16,SSE,157,13.0,13.0,89,0.00,CLR,,0.00,WeatherDisplay:10.37,2013-03-09 16:07:00,
2013-03-09 10:08:00,63.0,59.7,29.16,SSE,157,13.0,13.0,89,0.00,CLR,,0.00,WeatherDisplay:10.37,2013-03-09 16:08:00,
2013-03-09 10:13:00,63.0,59.7,29.16,SSE,157,13.0,13.0,89,0.00,CLR,,0.00,WeatherDisplay:10.37,2013-03-09 16:13:00,
2013-03-09 10:26:00,63.0,59.4,29.17,South,180,11.5,11.5,88,0.00,CLR,,0.00,WeatherDisplay:10.37,2013-03-09 16:26:00,
2013-03-09 10:31:00,63.0,59.7,29.17,South,180,15.0,15.0,89,0.00,CLR,,0.00,WeatherDisplay:10.37,2013-03-09 16:31:00,
2013-03-09 10:36:00,63.0,59.4,29.17,SSW,202,10.4,10.4,88,0.00,CLR,,0.00,WeatherDisplay:10.37,2013-03-09 16:36:00,
2013-03-09 10:41:00,63.0,59.4,29.17,SSE,157,12.7,12.7,88,0.00,CLR,,0.00,WeatherDisplay:10.37,2013-03-09 16:41:00,
2013-03-09 10:46:00,64.0,60.4,29.17,SSE,157,11.5,11.5,88,0.00,CLR,,0.00,WeatherDisplay:10.37,2013-03-09 16:46:00,
2013-03-09 10:51:00,64.0,60.1,29.17,SSE,157,10.0,10.1,87,0.00,CLR,,0.00,WeatherDisplay:10.37,2013-03-09 16:51:00,
2013-03-09 10:56:00,64.0,60.1,29.17,SSW,202,7.0,7.6,87,0.00,CLR,,0.00,WeatherDisplay:10.37,2013-03-09 16:56:00,
2013-03-09 11:01:00,64.0,60.1,29.17,SSE,157,11.5,11.5,87,0.00,CLR,,0.00,WeatherDisplay:10.37,2013-03-09 17:01:00,
2013-03-09 11:06:00,64.0,60.1,29.17,South,180,8.1,8.1,87,0.00,CLR,,0.00,WeatherDisplay:10.37,2013-03-09 17:06:00,
2013-03-09 11:11:00,64.0,59.7,29.17,South,180,9.0,9.0,86,0.00,CLR,,0.00,WeatherDisplay:10.37,2013-03-09 17:11:00,
2013-03-09 11:16:00,64.0,59.7,29.17,South,180,10.0,10.0,86,0.00,CLR,,0.00,WeatherDisplay:10.37,2013-03-09 17:16:00,
2013-03-09 11:21:00,64.0,59.7,29.17,South,180,9.2,9.2,86,0.00,CLR,,0.00,WeatherDisplay:10.37,2013-03-09 17:21:00,
2013-03-09 11:26:00,64.0,59.7,29.17,ESE,112,10.4,10.4,86,0.00,CLR,,0.00,WeatherDisplay:10.37,2013-03-09 17:26:00,
2013-03-09 11:31:00,64.0,59.7,29.17,South,180,5.8,7.1,86,0.00,CLR,,0.00,WeatherDisplay:10.37,2013-03-09 17:31:00,
2013-03-09 11:36:00,65.0,60.7,29.17,SSE,157,9.2,9.2,86,0.00,CLR,,0.00,WeatherDisplay:10.37,2013-03-09 17:36:00,
2013-03-09 11:41:00,65.0,60.4,29.17,South,180,10.4,10.4,85,0.00,CLR,,0.00,WeatherDisplay:10.37,2013-03-09 17:41:00,
2013-03-09 11:46:00,65.0,60.4,29.16,SSE,157,8.0,8.0,85,0.00,CLR,,0.00,WeatherDisplay:10.37,2013-03-09 17:46:00,
2013-03-09 11:51:00,65.0,60.4,29.16,SSE,157,9.2,9.2,85,0.00,CLR,,0.00,WeatherDisplay:10.37,2013-03-09 17:51:00,
2013-03-09 11:56:00,65.0,60.4,29.16,South,180,9.2,9.2,85,0.00,CLR,,0.00,WeatherDisplay:10.37,2013-03-09 17:56:00,
2013-03-09 12:01:00,65.0,60.4,29.16,SE,135,9.2,9.2,85,0.00,CLR,,0.00,WeatherDisplay:10.37,2013-03-09 18:01:00,
2013-03-09 12:06:00,65.0,60.4,29.16,SSE,157,6.9,6.9,85,0.00,CLR,,0.00,WeatherDisplay:10.37,2013-03-09 18:06:00,
2013-03-09 12:11:00,65.0,60.4,29.16,SSE,157,7.0,7.0,85,0.00,CLR,,0.00,WeatherDisplay:10.37,2013-03-09 18:11:00,
2013-03-09 12:16:00,65.0,60.0,29.15,South,180,9.2,9.2,84,0.00,CLR,,0.00,WeatherDisplay:10.37,2013-03-09 18:16:00,
2013-03-09 12:21:00,66.0,61.0,29.15,South,180,6.9,6.9,84,0.00,CLR,,0.00,WeatherDisplay:10.37,2013-03-09 18:21:00,
2013-03-09 12:26:00,66.0,60.7,29.15,South,180,5.8,5.8,83,0.00,CLR,,0.00,WeatherDisplay:10.37,2013-03-09 18:26:00,
2013-03-09 12:31:00,66.0,61.0,29.15,South,180,6.9,6.9,84,0.00,CLR,,0.00,WeatherDisplay:10.37,2013-03-09 18:31:00,
2013-03-09 12:36:00,65.0,60.4,29.14,South,180,6.9,6.9,85,0.00,CLR,,0.00,WeatherDisplay:10.37,2013-03-09 18:36:00,
2013-03-09 12:41:00,66.0,60.7,29.14,SSE,157,6.9,6.9,83,0.00,CLR,,0.00,WeatherDisplay:10.37,2013-03-09 18:41:00,
2013-03-09 12:46:00,66.0,60.7,29.14,SSE,157,6.9,6.9,83,0.00,CLR,,0.00,WeatherDisplay:10.37,2013-03-09 18:46:00,
2013-03-09 12:51:00,66.0,61.0,29.13,South,180,9.2,9.2,84,0.00,CLR,,0.00,WeatherDisplay:10.37,2013-03-09 18:51:00,
2013-03-09 12:56:00,65.0,61.0,29.13,SE,135,6.9,6.9,87,0.00,CLR,,0.00,WeatherDisplay:10.37,2013-03-09 18:56:00,
2013-03-09 13:01:00,65.0,61.4,29.13,SSE,157,10.4,10.4,88,0.00,CLR,,0.00,WeatherDisplay:10.37,2013-03-09 19:01:00,
2013-03-09 13:06:00,65.0,62.0,29.13,South,180,6.9,6.9,90,0.00,CLR,,0.00,WeatherDisplay:10.37,2013-03-09 19:06:00,
2013-03-09 13:11:00,65.0,62.3,29.12,South,180,8.1,8.1,91,0.00,CLR,,0.00,WeatherDisplay:10.37,2013-03-09 19:11:00,
2013-03-09 13:16:00,65.0,62.3,29.11,South,180,4.6,4.6,91,0.00,CLR,,0.00,WeatherDisplay:10.37,2013-03-09 19:16:00,
2013-03-09 13:21:00,65.0,62.3,29.11,SSE,157,6.0,6.0,91,0.00,CLR,,0.00,WeatherDisplay:10.37,2013-03-09 19:21:00,
2013-03-09 13:26:00,64.0,61.9,29.11,South,180,9.0,9.0,93,0.00,CLR,,0.00,WeatherDisplay:10.37,2013-03-09 19:26:00,
2013-03-09 13:31:00,65.0,62.6,29.11,SSE,157,8.1,8.1,92,0.00,CLR,,0.00,WeatherDisplay:10.37,2013-03-09 19:31:00,
2013-03-09 13:36:00,65.0,62.3,29.10,SSE,157,6.9,6.9,91,0.00,CLR,,0.00,WeatherDisplay:10.37,2013-03-09 19:36:00,
2013-03-09 13:41:00,64.0,61.9,29.10,South,180,5.8,5.8,93,0.00,CLR,,0.00,WeatherDisplay:10.37,2013-03-09 19:41:00,
2013-03-09 13:46:00,64.0,61.9,29.10,South,180,6.9,6.9,93,0.00,CLR,,0.00,WeatherDisplay:10.37,2013-03-09 19:46:00,
2013-03-09 13:52:00,64.0,62.2,29.09,SSE,157,6.0,6.0,94,0.00,CLR,,0.00,WeatherDisplay:10.37,2013-03-09 19:52:00,
2013-03-09 13:57:00,64.0,62.5,29.09,South,180,9.2,9.2,95,0.00,CLR,,0.00,WeatherDisplay:10.37,2013-03-09 19:57:00,
2013-03-09 14:01:00,64.0,62.5,29.09,South,180,5.8,5.8,95,0.00,CLR,,0.00,WeatherDisplay:10.37,2013-03-09 20:01:00,
2013-03-09 14:07:00,64.0,62.5,29.09,SSE,157,11.5,11.5,95,0.00,CLR,,0.00,WeatherDisplay:10.37,2013-03-09 20:07:00,
2013-03-09 14:12:00,65.0,63.2,29.09,SSE,157,10.4,10.4,94,0.00,CLR,,0.00,WeatherDisplay:10.37,2013-03-09 20:12:00,
2013-03-09 14:17:00,65.0,62.9,29.09,South,180,11.5,11.5,93,0.00,CLR,,0.00,WeatherDisplay:10.37,2013-03-09 20:17:00,
2013-03-09 14:22:00,65.0,62.9,29.09,South,180,5.8,5.8,93,0.00,CLR,,0.00,WeatherDisplay:10.37,2013-03-09 20:22:00,
2013-03-09 14:27:00,65.0,62.9,29.08,South,180,9.2,9.2,93,0.00,CLR,,0.00,WeatherDisplay:10.37,2013-03-09 20:27:00,
2013-03-09 14:32:00,65.0,62.9,29.08,South,180,10.4,10.4,93,0.00,CLR,,0.00,WeatherDisplay:10.37,2013-03-09 20:32:00,
2013-03-09 14:37:00,65.0,63.2,29.08,South,180,9.2,9.2,94,0.00,CLR,,0.00,WeatherDisplay:10.37,2013-03-09 20:37:00,
2013-03-09 14:42:00,65.0,63.5,29.08,SSE,157,6.9,6.9,95,0.00,CLR,,0.00,WeatherDisplay:10.37,2013-03-09 20:42:00,
2013-03-09 14:47:00,65.0,63.5,29.08,SSE,157,10.4,10.4,95,0.00,CLR,,0.00,WeatherDisplay:10.37,2013-03-09 20:47:00,
2013-03-09 14:52:00,65.0,63.5,29.07,South,180,8.1,8.1,95,0.00,CLR,,0.00,WeatherDisplay:10.37,2013-03-09 20:52:00,
2013-03-09 14:57:00,65.0,62.9,29.07,SSW,202,6.9,6.9,93,0.00,CLR,,0.00,WeatherDisplay:10.37,2013-03-09 20:57:00,
2013-03-09 15:02:00,65.0,63.5,29.07,South,180,16.1,16.1,95,0.00,CLR,,0.00,WeatherDisplay:10.37,2013-03-09 21:02:00,
2013-03-09 15:07:00,66.0,64.5,29.07,South,180,10.4,10.4,95,0.00,CLR,,0.00,WeatherDisplay:10.37,2013-03-09 21:07:00,
2013-03-09 15:12:00,66.0,64.5,29.06,SSE,157,10.4,10.4,95,0.00,CLR,,0.00,WeatherDisplay:10.37,2013-03-09 21:12:00,
2013-03-09 15:17:00,66.0,65.1,29.06,SSE,157,12.0,12.0,97,0.00,CLR,,0.00,WeatherDisplay:10.37,2013-03-09 21:17:00,
2013-03-09 15:22:00,66.0,65.4,29.05,SW,225,10.4,10.4,98,0.00,CLR,,0.00,WeatherDisplay:10.37,2013-03-09 21:22:00,
2013-03-09 15:27:00,65.0,64.7,29.05,SSE,157,8.1,8.1,99,0.00,CLR,,0.00,WeatherDisplay:10.37,2013-03-09 21:27:00,
2013-03-09 15:32:00,65.0,65.0,29.05,SSE,157,11.5,11.5,100,0.00,CLR,,0.00,WeatherDisplay:10.37,2013-03-09 21:32:00,
2013-03-09 15:37:00,65.0,65.0,29.05,SSE,157,9.2,9.2,100,0.00,CLR,,0.00,WeatherDisplay:10.37,2013-03-09 21:37:00,
2013-03-09 15:42:00,65.0,65.0,29.05,South,180,17.3,17.3,100,0.00,CLR,,0.00,WeatherDisplay:10.37,2013-03-09 21:42:00,
2013-03-09 15:47:00,65.0,65.0,29.05,South,180,9.2,9.2,100,0.00,CLR,,0.00,WeatherDisplay:10.37,2013-03-09 21:47:00,
2013-03-09 15:52:00,64.0,64.0,29.05,SSE,157,9.0,9.0,100,0.00,CLR,,0.00,WeatherDisplay:10.37,2013-03-09 21:52:00,
2013-03-09 15:57:00,64.0,64.0,29.05,SE,135,7.0,7.0,100,0.00,CLR,,0.00,WeatherDisplay:10.37,2013-03-09 21:57:00,
2013-03-09 16:02:00,64.0,64.0,29.05,SSW,202,10.4,10.4,100,0.00,CLR,,0.00,WeatherDisplay:10.37,2013-03-09 22:02:00,
2013-03-09 16:07:00,64.0,64.0,29.04,SSE,157,10.4,10.4,100,0.00,CLR,,0.00,WeatherDisplay:10.37,2013-03-09 22:07:00,
2013-03-09 16:12:00,64.0,64.0,29.04,SSE,157,6.9,6.9,100,0.00,CLR,,0.00,WeatherDisplay:10.37,2013-03-09 22:12:00,
2013-03-09 16:17:00,64.0,64.0,29.03,South,180,8.1,8.1,100,0.00,CLR,,0.00,WeatherDisplay:10.37,2013-03-09 22:17:00,
2013-03-09 16:22:00,64.0,64.0,29.03,SSE,157,6.9,6.9,100,0.00,CLR,,0.00,WeatherDisplay:10.37,2013-03-09 22:22:00,
2013-03-09 16:27:00,64.0,64.0,29.02,South,180,9.2,9.2,100,0.00,CLR,,0.00,WeatherDisplay:10.37,2013-03-09 22:27:00,
2013-03-09 16:32:00,64.0,64.0,29.01,South,180,6.0,6.0,100,0.00,CLR,,0.00,WeatherDisplay:10.37,2013-03-09 22:32:00,
2013-03-09 16:37:00,64.0,64.0,29.01,South,180,5.8,5.8,100,0.00,CLR,,0.00,WeatherDisplay:10.37,2013-03-09 22:37:00,
2013-03-09 16:42:00,64.0,64.0,29.01,South,180,5.8,5.8,100,0.00,CLR,,0.00,WeatherDisplay:10.37,2013-03-09 22:42:00,
2013-03-09 16:47:00,65.0,65.0,29.01,SSE,157,5.0,5.0,100,0.00,CLR,,0.00,WeatherDisplay:10.37,2013-03-09 22:47:00,
2013-03-09 16:52:00,64.0,64.0,29.01,SSE,157,8.1,8.1,100,0.00,CLR,,0.00,WeatherDisplay:10.37,2013-03-09 22:52:00,
2013-03-09 16:57:00,65.0,65.0,29.01,South,180,9.2,9.2,100,0.00,CLR,,0.00,WeatherDisplay:10.37,2013-03-09 22:57:00,
2013-03-09 17:02:00,65.0,65.0,29.00,SE,135,8.1,8.1,100,0.00,CLR,,0.00,WeatherDisplay:10.37,2013-03-09 23:02:00,
2013-03-09 17:07:00,65.0,65.0,28.99,SSE,157,6.0,6.0,100,0.00,CLR,,0.00,WeatherDisplay:10.37,2013-03-09 23:07:00,
2013-03-09 17:12:00,65.0,65.0,28.98,SSE,157,9.2,9.2,100,0.00,CLR,,0.00,WeatherDisplay:10.37,2013-03-09 23:12:00,
2013-03-09 17:17:00,65.0,65.0,28.98,South,180,7.0,7.0,100,0.00,CLR,,0.00,WeatherDisplay:10.37,2013-03-09 23:17:00,
2013-03-09 17:22:00,66.0,64.8,28.97,SSE,157,9.2,9.2,96,0.00,CLR,,0.00,WeatherDisplay:10.37,2013-03-09 23:22:00,
2013-03-09 17:27:00,66.0,63.3,28.96,ENE,67,6.9,6.9,91,0.00,CLR,,0.00,WeatherDisplay:10.37,2013-03-09 23:27:00,
2013-03-09 17:32:00,67.0,63.0,28.97,SSE,157,10.4,10.4,87,0.00,CLR,,0.00,WeatherDisplay:10.37,2013-03-09 23:32:00,
2013-03-09 17:37:00,67.0,62.7,28.98,SSE,157,12.7,12.7,86,0.00,CLR,,0.00,WeatherDisplay:10.37,2013-03-09 23:37:00,
2013-03-09 17:42:00,67.0,62.0,28.99,SSE,157,16.1,16.1,84,0.00,CLR,,0.00,WeatherDisplay:10.37,2013-03-09 23:42:00,
2013-03-09 17:47:00,68.0,62.6,29.00,SSW,202,9.2,9.2,83,0.00,CLR,,0.00,WeatherDisplay:10.37,2013-03-09 23:47:00,
2013-03-09 17:52:00,68.0,62.6,29.00,South,180,6.9,6.9,83,0.00,CLR,,0.00,WeatherDisplay:10.37,2013-03-09 23:52:00,
2013-03-09 17:57:00,68.0,62.3,29.01,SSE,157,5.8,5.8,82,0.00,CLR,,0.00,WeatherDisplay:10.37,2013-03-09 23:57:00,
2013-03-09 18:02:00,68.0,61.9,29.02,SSW,202,6.9,6.9,81,0.00,CLR,,0.00,WeatherDisplay:10.37,2013-03-10 00:02:00,
2013-03-09 18:07:00,68.0,61.9,29.02,SW,225,7.0,7.0,81,0.00,CLR,,0.00,WeatherDisplay:10.37,2013-03-10 00:07:00,
2013-03-09 18:12:00,68.0,61.9,29.01,SW,225,8.0,8.0,81,0.00,CLR,,0.00,WeatherDisplay:10.37,2013-03-10 00:12:00,
2013-03-09 18:17:00,68.0,61.9,29.01,SSE,157,9.2,9.2,81,0.00,CLR,,0.00,WeatherDisplay:10.37,2013-03-10 00:17:00,
2013-03-09 18:22:00,68.0,61.9,29.01,SSW,202,7.0,7.0,81,0.00,CLR,,0.00,WeatherDisplay:10.37,2013-03-10 00:22:00,
2013-03-09 18:27:00,68.0,61.9,29.02,South,180,6.9,6.9,81,0.00,CLR,,0.00,WeatherDisplay:10.37,2013-03-10 00:27:00,
2013-03-09 18:32:00,68.0,61.9,29.02,South,180,9.0,9.0,81,0.00,CLR,,0.00,WeatherDisplay:10.37,2013-03-10 00:32:00,
2013-03-09 18:37:00,68.0,61.9,29.02,South,180,5.8,5.8,81,0.00,CLR,,0.00,WeatherDisplay:10.37,2013-03-10 00:37:00,
2013-03-09 18:42:00,68.0,61.9,29.03,SSE,157,6.0,6.0,81,0.00,CLR,,0.00,WeatherDisplay:10.37,2013-03-10 00:42:00,
2013-03-09 18:47:00,68.0,61.9,29.03,SSE,157,6.9,6.9,81,0.00,CLR,,0.00,WeatherDisplay:10.37,2013-03-10 00:47:00,
2013-03-09 18:52:00,68.0,61.9,29.03,SSW,202,4.0,4.0,81,0.00,CLR,,0.00,WeatherDisplay:10.37,2013-03-10 00:52:00,
2013-03-09 18:57:00,68.0,61.9,29.03,South,180,6.0,6.0,81,0.00,CLR,,0.00,WeatherDisplay:10.37,2013-03-10 00:57:00,
2013-03-09 19:02:00,68.0,61.9,29.03,SSE,157,5.8,5.8,81,0.00,CLR,,0.00,WeatherDisplay:10.37,2013-03-10 01:02:00,
2013-03-09 19:07:00,68.0,61.9,29.03,South,180,5.8,5.8,81,0.00,CLR,,0.00,WeatherDisplay:10.37,2013-03-10 01:07:00,
2013-03-09 19:12:00,67.0,61.3,29.03,South,180,5.8,5.8,82,0.00,CLR,,0.00,WeatherDisplay:10.37,2013-03-10 01:12:00,
2013-03-09 19:17:00,67.0,61.3,29.03,South,180,6.0,6.0,82,0.00,CLR,,0.00,WeatherDisplay:10.37,2013-03-10 01:17:00,
2013-03-09 19:22:00,67.0,61.7,29.04,SSW,202,5.8,5.8,83,0.00,CLR,,0.00,WeatherDisplay:10.37,2013-03-10 01:22:00,
2013-03-09 19:27:00,67.0,61.7,29.03,South,180,8.0,8.0,83,0.00,CLR,,0.00,WeatherDisplay:10.37,2013-03-10 01:27:00,
2013-03-09 19:32:00,67.0,61.7,29.03,SSE,157,5.0,5.0,83,0.00,CLR,,0.00,WeatherDisplay:10.37,2013-03-10 01:32:00,
2013-03-09 19:37:00,67.0,61.7,29.03,SSE,157,6.9,6.9,83,0.00,CLR,,0.00,WeatherDisplay:10.37,2013-03-10 01:37:00,
2013-03-09 19:42:00,67.0,61.7,29.02,South,180,9.2,9.2,83,0.00,CLR,,0.00,WeatherDisplay:10.37,2013-03-10 01:42:00,
2013-03-09 19:47:00,67.0,61.7,29.02,SSE,157,4.6,4.6,83,0.00,CLR,,0.00,WeatherDisplay:10.37,2013-03-10 01:47:00,
2013-03-09 19:52:00,67.0,61.7,29.02,SSW,202,6.0,6.0,83,0.00,CLR,,0.00,WeatherDisplay:10.37,2013-03-10 01:52:00,
2013-03-09 19:57:00,67.0,61.3,29.02,SSE,157,6.9,8.5,82,0.00,CLR,,0.00,WeatherDisplay:10.37,2013-03-10 01:57:00,
2013-03-09 20:02:00,68.0,61.9,29.03,South,180,11.5,11.5,81,0.00,CLR,,0.00,WeatherDisplay:10.37,2013-03-10 02:02:00,
2013-03-09 20:07:00,68.0,61.6,29.04,South,180,12.7,12.7,80,0.00,CLR,,0.00,WeatherDisplay:10.37,2013-03-10 02:07:00,
2013-03-09 20:13:00,68.0,61.6,29.04,South,180,16.1,16.1,80,0.00,CLR,,0.00,WeatherDisplay:10.37,2013-03-10 02:13:00,
2013-03-09 20:17:00,68.0,61.6,29.03,South,180,13.0,13.0,80,0.00,CLR,,0.00,WeatherDisplay:10.37,2013-03-10 02:17:00,
2013-03-09 20:23:00,68.0,61.6,29.03,SSE,157,6.9,11.0,80,0.00,CLR,,0.00,WeatherDisplay:10.37,2013-03-10 02:23:00,
2013-03-09 20:28:00,68.0,61.6,29.03,SSE,157,11.5,11.5,80,0.00,CLR,,0.00,WeatherDisplay:10.37,2013-03-10 02:28:00,
2013-03-09 20:33:00,67.0,60.6,29.03,SSE,157,11.5,11.5,80,0.00,CLR,,0.00,WeatherDisplay:10.37,2013-03-10 02:33:00,
2013-03-09 20:38:00,67.0,61.0,29.03,South,180,11.5,11.5,81,0.00,CLR,,0.00,WeatherDisplay:10.37,2013-03-10 02:38:00,
2013-03-09 20:43:00,67.0,61.0,29.03,South,180,9.2,9.2,81,0.00,CLR,,0.00,WeatherDisplay:10.37,2013-03-10 02:43:00,
2013-03-09 20:48:00,67.0,61.0,29.03,SSE,157,17.0,17.0,81,0.00,CLR,,0.00,WeatherDisplay:10.37,2013-03-10 02:48:00,
2013-03-09 20:53:00,67.0,61.0,29.03,South,180,12.7,12.7,81,0.00,CLR,,0.00,WeatherDisplay:10.37,2013-03-10 02:53:00,
2013-03-09 20:58:00,67.0,61.0,29.04,SSE,157,11.5,11.5,81,0.00,CLR,,0.00,WeatherDisplay:10.37,2013-03-10 02:58:00,
2013-03-09 21:03:00,67.0,61.0,29.04,SE,135,11.5,11.5,81,0.00,CLR,,0.00,WeatherDisplay:10.37,2013-03-10 03:03:00,
2013-03-09 21:08:00,67.0,61.0,29.04,South,180,10.4,10.4,81,0.00,CLR,,0.00,WeatherDisplay:10.37,2013-03-10 03:08:00,
2013-03-09 21:13:00,67.0,61.3,29.05,South,180,12.0,12.0,82,0.00,CLR,,0.00,WeatherDisplay:10.37,2013-03-10 03:13:00,
2013-03-09 21:18:00,66.0,60.7,29.05,South,180,8.1,8.1,83,0.00,CLR,,0.00,WeatherDisplay:10.37,2013-03-10 03:18:00,
2013-03-09 21:23:00,66.0,61.0,29.05,SSE,157,10.4,10.4,84,0.00,CLR,,0.00,WeatherDisplay:10.37,2013-03-10 03:23:00,
2013-03-09 21:28:00,66.0,61.7,29.06,SSW,202,9.2,9.2,86,0.00,CLR,,0.00,WeatherDisplay:10.37,2013-03-10 03:28:00,
2013-03-09 21:33:00,65.0,60.7,29.06,SE,135,10.4,10.4,86,0.00,CLR,,0.00,WeatherDisplay:10.37,2013-03-10 03:33:00,
2013-03-09 21:38:00,66.0,61.7,29.06,South,180,9.2,9.2,86,0.00,CLR,,0.00,WeatherDisplay:10.37,2013-03-10 03:38:00,
2013-03-09 21:43:00,65.0,60.7,29.05,South,180,7.0,7.0,86,0.00,CLR,,0.00,WeatherDisplay:10.37,2013-03-10 03:43:00,
2013-03-09 21:48:00,65.0,60.7,29.05,ESE,112,9.2,9.2,86,0.00,CLR,,0.00,WeatherDisplay:10.37,2013-03-10 03:48:00,
2013-03-09 21:53:00,65.0,61.0,29.05,East,90,4.0,4.0,87,0.00,CLR,,0.00,WeatherDisplay:10.37,2013-03-10 03:53:00,
2013-03-09 21:58:00,65.0,61.4,29.04,SE,135,6.0,6.0,88,0.00,CLR,,0.00,WeatherDisplay:10.37,2013-03-10 03:58:00,
2013-03-09 22:03:00,65.0,61.0,29.03,SSE,157,8.1,8.1,87,0.00,CLR,,0.00,WeatherDisplay:10.37,2013-03-10 04:03:00,
2013-03-09 22:08:00,65.0,61.0,29.03,SE,135,8.1,8.1,87,0.00,CLR,,0.00,WeatherDisplay:10.37,2013-03-10 04:08:00,
2013-03-09 22:13:00,65.0,60.7,29.03,SSE,157,11.5,11.5,86,0.00,CLR,,0.00,WeatherDisplay:10.37,2013-03-10 04:13:00,
2013-03-09 22:18:00,65.0,60.7,29.04,South,180,5.8,5.8,86,0.00,CLR,,0.00,WeatherDisplay:10.37,2013-03-10 04:18:00,
2013-03-09 22:23:00,65.0,60.4,29.02,South,180,9.0,9.0,85,0.00,CLR,,0.00,WeatherDisplay:10.37,2013-03-10 04:23:00,
2013-03-09 22:28:00,66.0,61.4,29.03,SSE,157,6.9,6.9,85,0.00,CLR,,0.00,WeatherDisplay:10.37,2013-03-10 04:28:00,
2013-03-09 22:33:00,66.0,61.4,29.02,South,180,5.8,5.8,85,0.00,CLR,,0.00,WeatherDisplay:10.37,2013-03-10 04:33:00,
2013-03-09 22:38:00,66.0,61.0,29.01,SSE,157,10.4,10.4,84,0.00,CLR,,0.00,WeatherDisplay:10.37,2013-03-10 04:38:00,
2013-03-09 22:43:00,65.0,60.4,29.02,ESE,112,9.2,9.2,85,0.00,CLR,,0.00,WeatherDisplay:10.37,2013-03-10 04:43:00,
2013-03-09 22:48:00,66.0,61.4,29.02,South,180,6.9,6.9,85,0.00,CLR,,0.00,WeatherDisplay:10.37,2013-03-10 04:48:00,
2013-03-09 22:53:00,65.0,60.4,29.02,South,180,10.4,10.4,85,0.00,CLR,,0.00,WeatherDisplay:10.37,2013-03-10 04:53:00,
2013-03-09 22:58:00,65.0,60.7,29.03,SE,135,13.8,13.8,86,0.00,CLR,,0.00,WeatherDisplay:10.37,2013-03-10 04:58:00,
2013-03-09 23:00:00,65.0,60.7,29.03,South,180,11.5,11.5,86,0.00,CLR,,0.00,WeatherDisplay:10.37,2013-03-10 05:00:00,
2013-03-09 23:05:00,65.0,61.0,29.03,South,180,11.5,11.5,87,0.00,CLR,,0.00,WeatherDisplay:10.37,2013-03-10 05:05:00,
2013-03-09 23:11:00,65.0,61.7,29.03,South,180,16.1,16.1,89,0.00,CLR,,0.00,WeatherDisplay:10.37,2013-03-10 05:11:00,
2013-03-09 23:16:00,64.0,61.6,29.03,South,180,11.5,11.5,92,0.01,RA,,0.01,WeatherDisplay:10.37,2013-03-10 05:16:00,
2013-03-09 23:21:00,64.0,61.9,29.03,SSE,157,11.5,11.5,93,0.02,RA,,0.02,WeatherDisplay:10.37,2013-03-10 05:21:00,
2013-03-09 23:26:00,63.0,61.5,29.01,SSE,157,9.2,9.2,95,0.02,RA,,0.03,WeatherDisplay:10.37,2013-03-10 05:26:00,
2013-03-09 23:31:00,63.0,61.8,29.01,SSE,157,11.5,11.5,96,0.04,RA,,0.04,WeatherDisplay:10.37,2013-03-10 05:31:00,
2013-03-09 23:36:00,63.0,62.1,29.01,South,180,9.2,9.2,97,0.04,RA,,0.04,WeatherDisplay:10.37,2013-03-10 05:36:00,
2013-03-09 23:41:00,63.0,62.1,29.02,SSE,157,9.2,9.2,97,0.04,,,0.04,WeatherDisplay:10.37,2013-03-10 05:41:00,
2013-03-09 23:46:00,63.0,62.1,29.01,SE,135,5.8,5.8,97,0.04,CLR,,0.04,WeatherDisplay:10.37,2013-03-10 05:46:00,
2013-03-09 23:51:00,63.0,62.1,29.02,South,180,6.9,6.9,97,0.04,CLR,,0.04,WeatherDisplay:10.37,2013-03-10 05:51:00,
2013-03-09 23:56:00,63.0,62.1,29.02,South,180,9.2,9.2,97,0.04,CLR,,0.04,WeatherDisplay:10.37,2013-03-10 05:56:00,